Regional Weather Roundup
Issued by NWS Goodland, KS

Home | Current Version | Previous Version | Graphics & Text | Print | Product List | Glossary On
Versions: 1 2 3 4 5 6 7 8 9 10 11 12 13 14 15 16 17 18 19 20 21 22 23 24 25 26 27 28 29 30 31 32 33 34 35 36 37 38 39 40 41 42 43 44 45 46 47 48 49 50
000
ASUS43 KGLD 021459
RWRGLD

GOODLAND FORECAST AREA HOURLY WEATHER ROUNDUP
NATIONAL WEATHER SERVICE GOODLAND KS
800 AM MST MON MAR 02 2015

...OFFICIAL OBSERVATIONS...

CITY           SKY/WX    TMP DP  RH WIND       PRES   REMARKS
GOODLAND KS    PTSUNNY   24  21  88 S14       30.16F FOG     WCI  12
HILL CITY KS   CLOUDY    29  20  69 SE10      30.32F WCI  20
IMPERIAL NEB     N/A     29  16  58 S22G31    30.16F WCI  15
MCCOOK NEB     CLOUDY    30  20  66 S10       30.26F
AKRON CO       CLOUDY    25  19  78 S20G28    30.02F WCI  11
BURLINGTON CO  CLOUDY    24  20  84 S18       30.10F FOG     WCI  10
LIMON CO       NOT AVBL
$$

...UNOFFICIAL OBSERVATIONS...

CITY           SKY/WX    TMP DP  RH WIND       PRES   REMARKS
COLBY KS       CLOUDY    27  25  93 SE13      30.22S WCI  16
GOVE KS          N/A     26  32 100 MISG        N/A
LENORA KS        N/A     26  32 100 S10         N/A  WCI  16
NORTON KS      CLOUDY    28  19  69 SE8       30.30S
SHARON SPRINGS   N/A     24  21  89 S13G20      N/A  WCI  12
KIT CARSON CO    N/A     24  21  89 MISG        N/A
YUMA CO          N/A     25  20  81 N10         N/A  WCI  15
$$



USA.gov is the U.S. government's official web portal to all federal, state and local government web resources and services.